O3B FM4

Last updated on Wed Jun 24 2026 00:03:25 GMT+0000 (Coordinated Universal Time)

1 39189U 13031B 26172.15722449 -.00000023 00000+0 00000+0 0 9994 2 39189 0.0421 346.4322 0005075 92.4174 281.2053 5.00115239237242
UTC large
Height (km)
Speed (km/s)
/
Latitude / Longitude
Inclination (degrees)
Orbital Period (minutes)
Azimuth
Elevation
Range (km)
Doppler Factor

Next 0 passes for location: London (51.5072 / 0.1276)

No passes found over London.
O3B FM4